QPF
0.00 0.00 0.00 0.00 0.00 0.00 0.00 0.00 0.00 0.00 0.01 0.00 0.00 0.00 0.00 0.00 0.00 0.00 0.00 0.00 0.00 0.00 0.00 0.01 0.06 0.02 0.00 0.04 0.03 0.05 0.01 0.00 0.00 0.00 0.00 0.00 0.03 0.05 0.05 0.05 0.06 0.06 0.09 0.08 0.04 0.02 0.02 0.01 0.01
0.00 0.00 0.00 0.00 0.00 0.00 0.00 0.00 0.01 0.01 0.01 0.00 0.00 0.00 0.00 0.01 0.00 0.00 0.00 0.00 0.00 0.00 0.00 0.00 0.03 0.02 0.01 0.02 0.06 0.07 0.00 0.00 0.00 0.00 0.00 0.01 0.08 0.06 0.04 0.04 0.04 0.02 0.04 0.02 0.01 0.00 0.00 0.00 0.00
0.00 0.00 0.00 0.00 0.00 0.00 0.00 0.00 0.00 0.00 0.01 0.03 0.00 0.00 0.00 0.00 0.00 0.00 0.00 0.00 0.00 0.00 0.00 0.00 0.01 0.02 0.01 0.01 0.02 0.01 0.00 0.00 0.00 0.01 0.02 0.01 0.01 0.00 0.00 0.01 0.01 0.01 0.01 0.00 0.00 0.01 0.02 0.00 0.00
0.00 0.00 0.00 0.00 0.00 0.00 0.00 0.00 0.00 0.01 0.01 0.04 0.01 0.00 0.00 0.00 0.00 0.00 0.00 0.00 0.00 0.00 0.00 0.06 0.07 0.06 0.01 0.01 0.01 0.00 0.00 0.00 0.00 0.01 0.05 0.11 0.14 0.04 0.02 0.02 0.01 0.00 0.00 0.01 0.01 0.00 0.00 0.00 0.00
0.00 0.00 0.00 0.00 0.00 0.00 0.00 0.00 0.00 0.00 0.00 0.00 0.00 0.00 0.01 0.00 0.00 0.00 0.00 0.00 0.00 0.00 0.00 0.09 0.14 0.07 0.07 0.09 0.06 0.01 0.00 0.00 0.02 0.02 0.12 0.22 0.19 0.06 0.05 0.05 0.02 0.01 0.00 0.01 0.00 0.00 0.00 0.00 0.00
0.00 0.00 0.00 0.00 0.00 0.00 0.00 0.00 0.00 0.00 0.02 0.00 0.00 0.00 0.00 0.00 0.00 0.00 0.00 0.00 0.00 0.00 0.04 0.03 0.05 0.01 0.00 0.00 0.03 0.03 0.00 0.00 0.01 0.05 0.23 0.20 0.06 0.03 0.02 0.02 0.01 0.01 0.02 0.04 0.00 0.00 0.00 0.01 0.00
0.00 0.00 0.00 0.00 0.00 0.00 0.00 0.00 0.02 0.00 0.00 0.00 0.00 0.00 0.00 0.00 0.00 0.00 0.00 0.00 0.00 0.02 0.09 0.02 0.03 0.04 0.00 0.01 0.16 0.08 0.00 0.09 0.10 0.23 0.25 0.05 0.01 0.00 0.00 0.00 0.00 0.06 0.09 0.08 0.05 0.06 0.09 0.03 0.01
0.00 0.00 0.00 0.00 0.00 0.00 0.00 0.00 0.01 0.01 0.01 0.00 0.00 0.00 0.00 0.00 0.00 0.00 0.00 0.00 0.01 0.08 0.12 0.07 0.00 0.01 0.00 0.00 0.04 0.01 0.00 0.11 0.10 0.18 0.07 0.03 0.01 0.00 0.00 0.00 0.00 0.02 0.03 0.04 0.08 0.14 0.15 0.03 0.02
0.00 0.00 0.00 0.00 0.00 0.00 0.00 0.01 0.01 0.00 0.00 0.00 0.00 0.00 0.00 0.00 0.00 0.00 0.00 0.00 0.04 0.15 0.15 0.07 0.00 0.01 0.00 0.02 0.01 0.00 0.00 0.09 0.08 0.06 0.00 0.00 0.00 0.00 0.00 0.00 0.00 0.00 0.00 0.00 0.03 0.13 0.13 0.01 0.00
0.00 0.00 0.00 0.00 0.00 0.00 0.00 0.02 0.02 0.00 0.00 0.00 0.00 0.00 0.00 0.00 0.00 0.00 0.00 0.00 0.00 0.02 0.07 0.03 0.03 0.07 0.06 0.05 0.03 0.01 0.07 0.05 0.01 0.00 0.00 0.00 0.00 0.00 0.00 0.00 0.00 0.01 0.02 0.05 0.05 0.05 0.06 0.08 0.03
0.00 0.00 0.00 0.00 0.00 0.00 0.00 0.00 0.00 0.00 0.00 0.00 0.00 0.00 0.00 0.00 0.00 0.00 0.00 0.00 0.01 0.01 0.01 0.01 0.00 0.00 0.01 0.00 0.00 0.00 0.02 0.00 0.00 0.00 0.00 0.00 0.00 0.00 0.00 0.01 0.04 0.06 0.04 0.04 0.01 0.00 0.00 0.00 0.00
0.00 0.00 0.00 0.00 0.00 0.00 0.00 0.00 0.00 0.00 0.00 0.00 0.00 0.00 0.00 0.00 0.00 0.00 0.00 0.00 0.00 0.00 0.00 0.00 0.00 0.00 0.00 0.00 0.00 0.00 0.00 0.00 0.00 0.00 0.00 0.00 0.00 0.00 0.00 0.00 0.00 0.00 0.00 0.00 0.00 0.00 0.00 0.00 0.00
0.00 0.00 0.00 0.00 0.00 0.00 0.00 0.00 0.00 0.00 0.00 0.00 0.00 0.00 0.00 0.00 0.00 0.00 0.00 0.00 0.00 0.00 0.00 0.00 0.00 0.00 0.00 0.00 0.00 0.00 0.00 0.00 0.00 0.00 0.00 0.00 0.00 0.00 0.00 0.00 0.00 0.00 0.00 0.00 0.00 0.00 0.00 0.00 0.00
0.00 0.00 0.00 0.00 0.00 0.00 0.00 0.00 0.01 0.00 0.00 0.00 0.00 0.00 0.00 0.00 0.00 0.00 0.00 0.00 0.00 0.00 0.00 0.00 0.00 0.00 0.00 0.00 0.00 0.00 0.00 0.00 0.00 0.00 0.00 0.00 0.00 0.00 0.00 0.00 0.00 0.02 0.05 0.01 0.00 0.01 0.00 0.00 0.02
0.00 0.00 0.00 0.00 0.00 0.00 0.00 0.00 0.00 0.00 0.00 0.00 0.00 0.00 0.00 0.00 0.00 0.00 0.00 0.00 0.00 0.00 0.01 0.01 0.00 0.00 0.00 0.00 0.00 0.00 0.00 0.00 0.00 0.00 0.00 0.00 0.00 0.00 0.00 0.00 0.00 0.00 0.00 0.01 0.00 0.00 0.00 0.00 0.00
0.00 0.00 0.00 0.00 0.00 0.00 0.00 0.00 0.00 0.00 0.00 0.00 0.00 0.00 0.00 0.00 0.00 0.00 0.00 0.00 0.00 0.00 0.01 0.01 0.00 0.00 0.00 0.00 0.00 0.00 0.00 0.00 0.00 0.00 0.00 0.00 0.00 0.00 0.00 0.00 0.00 0.00 0.00 0.00 0.00 0.00 0.00 0.00 0.00
0.00 0.00 0.00 0.00 0.00 0.00 0.00 0.00 0.00 0.00 0.00 0.00 0.00 0.00 0.00 0.00 0.00 0.00 0.00 0.00 0.00 0.00 0.00 0.00 0.00 0.00 0.00 0.00 0.00 0.00 0.00 0.00 0.00 0.00 0.00 0.00 0.00 0.00 0.00 0.00 0.00 0.00 0.00 0.00 0.00 0.00 0.00 0.00 0.00
0.00 0.00 0.00 0.00 0.00 0.00 0.00 0.00 0.00 0.00 0.00 0.00 0.00 0.00 0.00 0.00 0.00 0.00 0.00 0.00 0.00 0.00 0.00 0.00 0.00 0.00 0.00 0.00 0.00 0.00 0.00 0.01 0.00 0.00 0.00 0.00 0.00 0.00 0.00 0.00 0.00 0.00 0.00 0.00 0.00 0.00 0.00 0.00 0.00
0.00 0.00 0.00 0.00 0.00 0.00 0.00 0.00 0.00 0.00 0.00 0.00 0.00 0.00 0.00 0.00 0.00 0.00 0.00 0.00 0.00 0.00 0.00 0.00 0.00 0.00 0.00 0.00 0.00 0.00 0.00 0.00 0.00 0.00 0.00 0.00 0.00 0.00 0.00 0.00 0.00 0.00 0.00 0.00 0.00 0.00 0.00 0.00 0.00
0.00 0.00 0.00 0.00 0.00 0.00 0.00 0.00 0.00 0.00 0.00 0.00 0.00 0.00 0.00 0.00 0.00 0.00 0.00 0.00 0.00 0.00 0.00 0.00 0.00 0.00 0.00 0.00 0.00 0.00 0.00 0.00 0.00 0.00 0.00 0.00 0.00 0.00 0.00 0.00 0.00 0.00 0.00 0.00 0.00 0.00 0.00 0.00 0.00
0.00 0.00 0.00 0.00 0.00 0.00 0.00 0.00 0.00 0.00 0.00 0.00 0.00 0.00 0.00 0.00 0.00 0.00 0.00 0.00 0.00 0.00 0.00 0.00 0.00 0.00 0.00 0.00 0.00 0.00 0.00 0.00 0.00 0.00 0.02 0.00 0.00 0.00 0.00 0.00 0.00 0.00 0.00 0.00 0.00 0.00 0.00 0.00 0.00
0.00 0.00 0.00 0.00 0.00 0.00 0.00 0.00 0.00 0.00 0.00 0.00 0.00 0.00 0.00 0.00 0.00 0.00 0.00 0.00 0.00 0.00 0.00 0.00 0.00 0.00 0.00 0.00 0.00 0.00 0.00 0.00 0.00 0.00 0.00 0.00 0.00 0.00 0.00 0.00 0.00 0.00 0.00 0.00 0.00 0.00 0.08 0.00 0.00
0.00 0.00 0.00 0.00 0.00 0.00 0.00 0.00 0.00 0.00 0.00 0.00 0.00 0.00 0.00 0.00 0.00 0.00 0.00 0.00 0.00 0.00 0.00 0.00 0.00 0.00 0.00 0.00 0.00 0.00 0.00 0.00 0.00 0.00 0.00 0.00 0.00 0.00 0.00 0.00 0.00 0.00 0.00 0.00 0.00 0.00 0.00 0.00 0.00
0.00 0.00 0.00 0.01 0.02 0.00 0.00 0.00 0.00 0.00 0.00 0.00 0.00 0.00 0.00 0.00 0.00 0.00 0.00 0.00 0.00 0.00 0.00 0.00 0.00 0.00 0.00 0.00 0.00 0.00 0.00 0.00 0.00 0.00 0.00 0.00 0.00 0.00 0.00 0.00 0.00 0.00 0.01 0.00 0.00 0.00 0.00 0.00 0.00
0.00 0.00 0.00 0.00 0.00 0.00 0.00 0.00 0.00 0.00 0.00 0.00 0.00 0.00 0.00 0.00 0.00 0.00 0.00 0.00 0.00 0.00 0.00 0.00 0.00 0.00 0.00 0.00 0.00 0.00 0.00 0.00 0.00 0.00 0.00 0.00 0.00 0.00 0.00 0.00 0.00 0.01 0.01 0.00 0.00 0.00 0.02 0.01 0.00
0.00 0.00 0.00 0.00 0.00 0.00 0.00 0.00 0.00 0.00 0.00 0.00 0.00 0.00 0.00 0.00 0.00 0.00 0.00 0.00 0.00 0.00 0.00 0.00 0.00 0.00 0.00 0.00 0.00 0.00 0.00 0.00 0.00 0.00 0.00 0.00 0.00 0.00 0.01 0.01 0.00 0.02 0.01 0.00 0.00 0.00 0.01 0.03 0.00
0.00 0.00 0.00 0.00 0.00 0.00 0.00 0.00 0.00 0.00 0.00 0.00 0.00 0.00 0.00 0.00 0.00 0.00 0.00 0.02 0.01 0.00 0.00 0.00 0.00 0.00 0.00 0.00 0.00 0.00 0.00 0.00 0.00 0.00 0.00 0.00 0.00 0.00 0.00 0.00 0.00 0.01 0.03 0.00 0.01 0.00 0.01 0.04 0.00
0.00 0.00 0.00 0.00 0.00 0.00 0.00 0.00 0.00 0.00 0.00 0.00 0.00 0.00 0.00 0.00 0.00 0.00 0.00 0.00 0.00 0.00 0.00 0.00 0.00 0.00 0.00 0.00 0.00 0.00 0.00 0.00 0.00 0.00 0.00 0.00 0.00 0.00 0.00 0.01 0.01 0.00 0.00 0.00 0.00 0.01 0.07 0.00 0.00
0.00 0.00 0.00 0.00 0.00 0.00 0.00 0.00 0.00 0.00 0.00 0.00 0.00 0.00 0.00 0.00 0.00 0.00 0.00 0.00 0.00 0.00 0.00 0.00 0.01 0.01 0.00 0.01 0.01 0.00 0.00 0.00 0.00 0.00 0.00 0.00 0.00 0.00 0.00 0.02 0.02 0.00 0.00 0.00 0.00 0.00 0.06 0.09 0.01
0.00 0.00 0.00 0.00 0.00 0.00 0.00 0.00 0.00 0.00 0.00 0.00 0.00 0.00 0.00 0.00 0.00 0.00 0.00 0.00 0.00 0.00 0.00 0.00 0.00 0.00 0.00 0.00 0.00 0.00 0.00 0.00 0.00 0.00 0.00 0.00 0.00 0.00 0.00 0.00 0.00 0.00 0.00 0.00 0.00 0.00 0.02 0.02 0.01
MSLP
1009.94 1010.09 1010.35 1010.73 1011.77 1011.76 1012.02 1011.97 1011.46 1010.89 1010.57 1010.48 1010.36 1010.99 1011.73 1012.26 1012.66 1013.75 1013.26 1013.47 1013.47 1013.86 1014.02 1014.30 1014.46 1014.63 1015.09 1015.27 1015.47 1015.59 1015.68 1015.79 1016.09 1016.23 1016.44 1016.59 1016.73 1016.84 1016.86 1016.99 1017.03 1017.10 1017.14 1017.15 1017.29 1017.35 1017.60 1017.69 1017.69
1009.91 1010.23 1010.64 1011.11 1011.91 1012.09 1012.18 1011.72 1011.34 1011.11 1010.89 1010.78 1010.80 1011.23 1011.78 1012.41 1012.62 1013.20 1013.50 1013.62 1013.58 1013.93 1014.23 1014.53 1014.77 1014.87 1015.27 1015.49 1015.77 1015.88 1015.91 1016.08 1016.34 1016.47 1016.67 1016.73 1016.93 1017.00 1017.08 1017.13 1017.17 1017.27 1017.30 1017.42 1017.46 1017.52 1017.75 1017.85 1017.86
1009.95 1010.01 1010.93 1011.65 1012.48 1012.36 1012.03 1011.63 1011.30 1011.08 1010.89 1010.90 1011.07 1011.33 1011.82 1012.48 1012.91 1013.28 1013.23 1013.62 1013.78 1014.18 1014.43 1014.75 1014.97 1015.15 1015.45 1015.71 1015.96 1015.99 1016.07 1016.31 1016.46 1016.59 1016.76 1016.93 1017.04 1017.07 1017.22 1017.32 1017.37 1017.45 1017.41 1017.47 1017.60 1017.69 1017.91 1017.99 1017.98
1009.97 1010.46 1011.37 1011.86 1012.35 1012.32 1011.87 1011.40 1011.25 1010.94 1010.64 1010.86 1011.45 1011.98 1012.08 1012.17 1012.83 1013.07 1013.46 1013.83 1014.13 1014.52 1014.61 1014.83 1015.09 1015.30 1015.50 1015.82 1016.06 1016.17 1016.31 1016.45 1016.62 1016.73 1017.01 1017.11 1017.12 1017.29 1017.36 1017.53 1017.51 1017.56 1017.54 1017.67 1017.79 1017.96 1018.07 1018.01 1018.09
1010.20 1010.84 1011.80 1012.16 1012.06 1011.77 1011.50 1011.18 1011.12 1011.13 1011.05 1011.04 1011.48 1012.43 1012.93 1012.83 1012.72 1013.26 1013.70 1014.23 1014.45 1014.81 1014.80 1015.02 1015.21 1015.36 1015.64 1016.03 1016.19 1016.23 1016.43 1016.57 1016.63 1016.78 1017.14 1017.25 1017.31 1017.35 1017.57 1017.64 1017.77 1017.86 1017.87 1017.96 1018.09 1018.14 1018.15 1018.11 1018.17
1010.70 1011.56 1012.17 1012.37 1011.97 1011.61 1010.87 1010.86 1010.71 1010.74 1010.89 1011.22 1011.78 1012.67 1013.37 1013.40 1013.33 1013.72 1014.05 1014.45 1014.57 1014.91 1015.06 1015.26 1015.39 1015.48 1015.79 1016.01 1016.11 1016.33 1016.64 1016.66 1016.76 1017.01 1017.26 1017.20 1017.36 1017.55 1017.70 1017.84 1017.93 1018.01 1018.07 1018.10 1018.27 1018.25 1018.22 1018.13 1018.27
1010.84 1011.74 1012.20 1012.15 1011.94 1011.26 1010.89 1010.76 1010.68 1010.68 1010.78 1011.17 1011.72 1012.92 1013.46 1013.73 1013.93 1014.08 1014.27 1014.66 1014.85 1015.06 1015.26 1015.50 1015.68 1015.74 1015.98 1016.11 1016.34 1016.50 1016.70 1016.90 1017.13 1017.29 1017.27 1017.46 1017.53 1017.60 1017.70 1017.96 1018.02 1018.16 1018.17 1018.38 1018.40 1018.32 1018.28 1018.35 1018.33
1010.66 1011.58 1012.14 1012.04 1011.88 1011.47 1010.92 1010.81 1010.37 1010.53 1010.63 1010.98 1011.53 1012.47 1013.31 1013.58 1014.20 1014.55 1014.68 1014.98 1015.36 1015.56 1015.68 1015.89 1016.02 1016.20 1016.29 1016.30 1016.45 1016.67 1016.96 1017.12 1017.21 1017.35 1017.34 1017.60 1017.56 1017.67 1017.89 1018.10 1018.16 1018.25 1018.34 1018.40 1018.54 1018.42 1018.55 1018.39 1018.41
1010.48 1011.53 1011.97 1011.73 1011.68 1011.10 1010.92 1010.67 1010.12 1009.93 1010.56 1011.17 1011.64 1012.02 1012.42 1013.33 1014.38 1014.84 1015.23 1015.43 1015.85 1016.04 1016.10 1016.09 1016.23 1016.46 1016.48 1016.55 1016.70 1016.78 1017.10 1017.36 1017.49 1017.45 1017.62 1017.77 1017.96 1018.04 1018.22 1018.23 1018.23 1018.20 1018.22 1018.13 1018.22 1018.30 1018.42 1018.46 1018.56
1010.53 1011.41 1011.30 1011.21 1011.22 1010.99 1010.81 1010.71 1010.43 1010.46 1010.82 1011.53 1012.06 1012.47 1012.82 1013.61 1014.57 1014.91 1015.31 1015.50 1015.87 1016.19 1016.32 1016.30 1016.32 1016.61 1016.68 1016.80 1017.05 1017.22 1017.43 1017.65 1017.75 1017.53 1017.69 1017.91 1018.10 1018.24 1018.17 1018.14 1018.10 1017.98 1017.87 1018.23 1018.22 1018.48 1018.60 1018.62 1018.78
1010.45 1010.94 1010.99 1011.15 1011.10 1010.82 1010.70 1010.61 1010.49 1010.50 1010.89 1011.15 1011.93 1012.79 1013.28 1013.94 1014.67 1014.84 1015.28 1015.45 1015.77 1016.02 1016.29 1016.40 1016.37 1016.54 1016.70 1017.03 1017.26 1017.43 1017.62 1017.80 1017.73 1017.63 1017.78 1017.95 1018.14 1018.22 1018.25 1018.32 1018.41 1018.32 1018.10 1018.51 1018.62 1018.66 1018.66 1018.64 1018.69
1010.39 1010.82 1010.96 1011.23 1011.15 1011.02 1010.95 1010.85 1010.74 1010.53 1010.57 1010.75 1011.61 1012.39 1013.09 1013.82 1014.29 1014.56 1015.16 1015.53 1015.83 1016.07 1016.24 1016.41 1016.30 1016.45 1016.77 1017.18 1017.35 1017.52 1017.77 1017.82 1017.82 1017.75 1017.71 1017.97 1018.16 1018.15 1018.19 1018.23 1018.36 1018.29 1018.44 1018.56 1018.54 1018.56 1018.68 1018.68 1018.54
1010.62 1010.91 1011.13 1011.15 1011.14 1011.13 1010.94 1010.87 1010.90 1010.54 1010.42 1011.00 1011.75 1012.42 1012.91 1013.48 1014.06 1014.47 1014.88 1015.51 1015.77 1016.02 1016.19 1016.35 1016.44 1016.61 1016.82 1017.10 1017.33 1017.50 1017.75 1017.80 1017.73 1017.63 1017.59 1017.84 1018.04 1018.12 1018.16 1018.19 1018.30 1018.36 1018.54 1018.57 1018.58 1018.31 1018.43 1018.48 1018.47
1011.01 1011.20 1011.36 1011.23 1011.06 1011.05 1010.93 1010.90 1010.89 1010.30 1010.32 1011.23 1011.83 1012.35 1012.99 1013.38 1013.69 1014.30 1014.72 1015.24 1015.67 1015.88 1016.16 1016.37 1016.57 1016.54 1016.80 1017.01 1017.32 1017.53 1017.60 1017.65 1017.72 1017.61 1017.51 1017.60 1017.88 1017.95 1017.99 1018.03 1018.12 1018.36 1018.50 1018.50 1018.42 1018.11 1017.92 1018.27 1018.19
1011.44 1011.55 1011.28 1011.20 1011.21 1011.26 1011.16 1011.05 1010.85 1010.51 1010.52 1011.19 1011.83 1012.27 1012.71 1013.07 1013.47 1013.60 1014.14 1014.86 1015.23 1015.55 1016.03 1016.35 1016.48 1016.45 1016.88 1017.06 1017.22 1017.43 1017.53 1017.55 1017.59 1017.39 1017.38 1017.43 1017.62 1017.62 1017.71 1017.94 1017.95 1018.01 1018.26 1018.20 1018.01 1017.43 1017.46 1017.82 1017.68
1011.82 1011.84 1011.51 1011.15 1011.20 1011.25 1011.49 1011.17 1010.77 1010.70 1010.86 1011.39 1011.70 1012.13 1012.49 1012.65 1012.85 1013.36 1013.81 1014.37 1015.05 1015.44 1015.85 1016.23 1016.34 1016.52 1016.83 1016.95 1017.12 1017.27 1017.36 1017.42 1017.47 1017.35 1017.34 1017.32 1017.31 1017.35 1017.47 1017.63 1017.65 1017.66 1017.91 1017.97 1017.73 1017.57 1017.42 1017.62 1017.75
1012.34 1012.07 1011.72 1011.14 1010.93 1011.22 1011.79 1011.33 1010.70 1010.68 1011.01 1011.19 1011.69 1011.96 1012.01 1012.25 1012.54 1012.81 1013.43 1013.97 1014.50 1015.02 1015.54 1016.02 1016.21 1016.42 1016.58 1016.76 1016.94 1017.03 1017.17 1017.22 1017.21 1017.25 1017.23 1017.25 1017.07 1017.07 1017.28 1017.42 1017.49 1017.37 1017.64 1017.72 1017.82 1017.78 1017.96 1017.92 1017.92
1012.16 1011.86 1011.45 1011.01 1010.86 1011.01 1011.54 1011.39 1011.15 1010.94 1011.05 1011.21 1011.27 1011.54 1011.77 1011.86 1011.74 1012.33 1013.05 1013.66 1014.22 1014.79 1015.18 1015.68 1016.08 1016.30 1016.47 1016.70 1016.89 1016.90 1016.94 1016.90 1016.95 1016.88 1016.93 1017.09 1017.05 1017.02 1017.25 1017.50 1017.39 1017.32 1017.42 1017.68 1017.77 1017.96 1018.12 1018.11 1018.13
1011.60 1011.38 1010.90 1010.46 1010.30 1010.71 1010.98 1011.13 1010.85 1010.77 1010.86 1010.88 1011.00 1011.13 1011.28 1011.41 1011.79 1012.20 1012.77 1013.42 1014.02 1014.60 1015.00 1015.55 1015.95 1016.12 1016.43 1016.82 1017.03 1016.99 1016.85 1016.72 1016.62 1016.53 1016.62 1016.76 1016.94 1017.10 1017.25 1017.45 1017.40 1017.39 1017.40 1017.58 1017.85 1018.14 1018.28 1018.21 1018.39
1011.01 1011.10 1010.58 1010.45 1010.41 1010.93 1011.01 1010.65 1010.38 1010.27 1010.14 1010.19 1010.33 1010.66 1010.93 1011.51 1011.82 1012.27 1012.74 1013.23 1013.77 1014.20 1014.67 1015.23 1015.56 1015.96 1016.27 1016.45 1016.67 1016.63 1016.57 1016.51 1016.46 1016.33 1016.35 1016.29 1016.54 1016.84 1017.04 1017.23 1017.39 1017.27 1017.37 1017.69 1017.87 1017.97 1018.22 1018.24 1018.44
1010.58 1010.80 1010.46 1010.54 1010.73 1011.21 1011.38 1010.87 1009.92 1009.43 1009.41 1009.43 1009.76 1010.04 1010.53 1010.89 1011.48 1012.04 1012.28 1012.66 1013.36 1013.89 1014.21 1014.73 1015.18 1015.57 1016.01 1016.29 1016.55 1016.74 1016.67 1016.54 1016.48 1016.43 1016.48 1016.24 1016.34 1016.53 1016.73 1016.92 1017.20 1017.25 1017.45 1017.72 1017.69 1017.77 1018.00 1018.26 1018.52
1010.24 1009.98 1010.15 1011.00 1011.36 1011.66 1011.72 1011.53 1010.02 1009.57 1009.34 1009.16 1009.20 1009.58 1010.02 1010.44 1010.89 1011.42 1011.88 1012.38 1012.82 1013.35 1013.81 1014.29 1014.87 1015.26 1015.72 1016.09 1016.38 1016.51 1016.61 1016.79 1016.63 1016.62 1016.49 1016.29 1016.30 1016.38 1016.57 1016.71 1016.91 1017.05 1017.29 1017.51 1017.57 1017.64 1017.61 1017.91 1018.35
1009.38 1009.40 1010.32 1011.16 1011.79 1012.12 1012.39 1012.20 1009.69 1009.60 1009.27 1009.01 1008.71 1008.97 1009.39 1009.75 1010.23 1010.85 1011.32 1011.58 1012.27 1012.97 1013.45 1013.99 1014.49 1015.05 1015.36 1015.79 1015.97 1016.25 1016.46 1016.61 1016.65 1016.59 1016.52 1016.35 1016.27 1016.36 1016.33 1016.50 1016.59 1016.94 1017.20 1017.40 1017.60 1017.46 1017.64 1017.78 1017.91
1008.94 1010.09 1011.35 1012.18 1012.85 1013.03 1012.41 1011.98 1009.80 1009.32 1008.47 1008.06 1008.22 1008.48 1008.87 1009.28 1009.81 1010.45 1011.16 1011.56 1012.14 1012.69 1013.16 1013.72 1014.39 1014.79 1015.01 1015.42 1015.81 1016.05 1016.27 1016.49 1016.56 1016.58 1016.63 1016.44 1016.29 1016.27 1016.18 1016.31 1016.32 1016.61 1016.97 1017.15 1017.25 1017.31 1017.49 1017.59 1017.64
1009.36 1010.90 1012.32 1013.25 1013.64 1013.17 1012.28 1011.88 1009.34 1008.13 1007.58 1007.36 1007.61 1007.90 1008.37 1008.91 1009.54 1010.10 1010.77 1011.22 1011.70 1012.11 1012.68 1013.33 1013.93 1014.43 1014.75 1015.03 1015.46 1015.76 1016.03 1016.26 1016.35 1016.44 1016.51 1016.46 1016.23 1016.06 1016.03 1016.19 1016.20 1016.46 1016.76 1016.89 1016.98 1017.14 1017.36 1017.48 1017.40
1009.41 1010.65 1011.87 1012.72 1013.57 1013.00 1012.10 1010.87 1008.22 1007.17 1007.00 1006.93 1006.91 1007.34 1008.00 1008.63 1009.08 1009.52 1010.03 1010.73 1011.13 1011.53 1012.07 1012.79 1013.36 1013.92 1014.35 1014.65 1014.86 1015.31 1015.65 1015.95 1016.04 1016.11 1016.19 1016.13 1015.97 1015.81 1015.95 1015.98 1015.88 1016.14 1016.42 1016.58 1016.68 1016.97 1017.07 1017.20 1017.25
1008.91 1009.91 1010.23 1011.92 1013.25 1013.06 1011.85 1010.07 1007.83 1007.07 1007.16 1007.17 1007.17 1007.45 1007.76 1008.31 1008.72 1009.04 1009.55 1010.00 1010.65 1011.18 1011.54 1012.07 1012.64 1013.19 1013.61 1013.94 1014.40 1014.85 1015.28 1015.53 1015.61 1015.67 1015.83 1015.82 1015.70 1015.69 1015.74 1015.59 1015.77 1015.84 1016.21 1016.30 1016.49 1016.69 1016.96 1016.97 1017.00
1007.20 1008.39 1010.26 1011.84 1012.84 1013.25 1011.89 1010.51 1008.79 1007.42 1007.16 1007.30 1007.36 1007.37 1007.60 1007.94 1008.42 1008.89 1009.36 1009.69 1010.05 1010.47 1011.12 1011.55 1012.02 1012.31 1012.72 1013.37 1013.77 1013.91 1014.37 1014.78 1015.00 1015.22 1015.39 1015.56 1015.58 1015.66 1015.73 1015.72 1015.87 1015.92 1015.96 1016.14 1016.34 1016.46 1016.55 1016.89 1016.90
1007.54 1008.25 1009.92 1011.32 1012.19 1012.70 1012.05 1010.09 1007.57 1006.97 1006.65 1006.64 1006.90 1007.04 1007.17 1007.49 1007.93 1008.28 1008.61 1009.04 1009.48 1010.16 1010.82 1011.31 1011.65 1011.86 1012.31 1012.63 1012.88 1013.30 1013.63 1014.07 1014.56 1014.81 1014.92 1015.05 1015.28 1015.40 1015.56 1015.67 1015.81 1015.89 1015.84 1015.91 1016.13 1016.19 1016.31 1016.62 1016.76
1006.37 1007.28 1008.76 1010.94 1012.23 1012.42 1011.49 1008.98 1006.86 1006.44 1006.15 1006.02 1006.38 1006.67 1006.70 1006.82 1007.00 1007.57 1008.10 1008.64 1009.23 1009.76 1010.28 1010.57 1011.06 1011.44 1011.59 1011.85 1012.39 1012.63 1012.93 1013.43 1013.93 1014.25 1014.37 1014.57 1014.65 1014.85 1015.24 1015.48 1015.58 1015.55 1015.60 1015.68 1015.79 1015.88 1016.00 1016.26 1016.46
Thickness
5796 5794 5793 5782 5754 5747 5737 5745 5763 5757 5762 5771 5778 5766 5758 5759 5754 5736 5767 5768 5770 5768 5766 5764 5763 5758 5760 5762 5763 5763 5762 5761 5759 5759 5756 5754 5753 5753 5753 5752 5752 5750 5748 5748 5744 5744 5741 5738 5737
5797 5795 5787 5769 5738 5730 5734 5758 5751 5759 5767 5772 5771 5764 5757 5747 5763 5760 5759 5766 5767 5766 5765 5761 5759 5760 5758 5760 5760 5761 5760 5758 5757 5755 5753 5754 5753 5752 5751 5752 5751 5749 5749 5746 5744 5743 5740 5736 5735
5798 5797 5771 5751 5734 5726 5732 5756 5756 5764 5771 5769 5764 5768 5760 5752 5761 5760 5767 5765 5764 5762 5762 5759 5757 5758 5758 5757 5757 5758 5758 5756 5755 5753 5753 5753 5752 5751 5751 5750 5749 5749 5748 5746 5743 5742 5738 5734 5732
5791 5783 5770 5743 5732 5739 5747 5757 5761 5763 5772 5773 5763 5749 5762 5771 5763 5766 5767 5764 5762 5760 5760 5758 5757 5756 5756 5755 5755 5755 5755 5754 5752 5752 5751 5750 5750 5750 5749 5749 5748 5748 5746 5743 5741 5738 5736 5734 5732
5789 5774 5745 5739 5743 5751 5760 5766 5766 5760 5762 5764 5764 5745 5744 5764 5771 5767 5764 5761 5760 5758 5758 5757 5756 5756 5754 5753 5753 5754 5753 5752 5752 5750 5749 5750 5749 5749 5748 5748 5746 5744 5744 5742 5739 5737 5735 5734 5733
5767 5763 5738 5731 5743 5753 5763 5769 5769 5765 5766 5762 5755 5746 5744 5761 5764 5763 5762 5758 5758 5757 5756 5755 5755 5755 5754 5754 5755 5754 5751 5751 5750 5748 5747 5749 5749 5748 5747 5746 5743 5743 5743 5741 5739 5737 5735 5735 5733
5764 5749 5739 5745 5744 5750 5758 5772 5762 5762 5763 5759 5762 5739 5748 5754 5760 5761 5760 5758 5756 5755 5755 5754 5753 5754 5754 5754 5753 5752 5750 5749 5747 5746 5746 5747 5748 5749 5746 5744 5743 5743 5741 5740 5738 5737 5736 5734 5733
5770 5755 5742 5743 5740 5741 5762 5765 5773 5764 5764 5774 5768 5741 5740 5756 5758 5757 5757 5755 5752 5751 5752 5751 5751 5751 5752 5753 5752 5751 5749 5747 5747 5745 5747 5747 5749 5747 5744 5744 5743 5742 5740 5739 5737 5736 5737 5736 5733
5780 5741 5731 5745 5741 5752 5762 5760 5776 5781 5767 5767 5767 5761 5764 5762 5757 5753 5749 5749 5747 5747 5748 5749 5749 5749 5750 5751 5750 5750 5748 5746 5745 5745 5746 5748 5748 5747 5745 5745 5743 5743 5743 5742 5740 5740 5739 5736 5735
5763 5738 5749 5761 5758 5755 5760 5760 5765 5763 5760 5756 5757 5761 5762 5758 5753 5749 5747 5745 5746 5744 5746 5749 5748 5747 5749 5748 5747 5748 5747 5746 5745 5747 5747 5749 5748 5747 5748 5748 5746 5747 5748 5744 5744 5741 5738 5737 5735
5766 5750 5764 5761 5761 5765 5762 5762 5768 5759 5752 5761 5754 5754 5755 5754 5751 5750 5749 5748 5747 5747 5746 5746 5747 5748 5748 5746 5746 5746 5745 5744 5746 5747 5749 5750 5748 5749 5750 5749 5747 5748 5749 5746 5744 5743 5741 5738 5737
5759 5765 5766 5760 5763 5761 5756 5762 5756 5762 5763 5773 5767 5763 5758 5754 5753 5752 5748 5748 5747 5747 5746 5745 5747 5748 5747 5744 5745 5745 5743 5743 5745 5748 5751 5751 5751 5752 5751 5751 5749 5749 5748 5746 5745 5744 5742 5741 5739
5760 5763 5763 5762 5762 5761 5764 5757 5755 5761 5773 5773 5767 5763 5760 5758 5755 5754 5753 5749 5747 5746 5747 5746 5746 5747 5746 5746 5744 5744 5742 5742 5746 5749 5752 5752 5753 5754 5753 5752 5750 5750 5749 5747 5746 5747 5745 5743 5742
5763 5761 5761 5762 5760 5761 5756 5756 5758 5766 5774 5766 5764 5761 5759 5758 5757 5755 5752 5749 5747 5747 5746 5745 5745 5745 5745 5746 5743 5743 5743 5745 5747 5750 5754 5754 5754 5755 5755 5754 5753 5752 5750 5750 5749 5749 5749 5745 5745
5756 5750 5760 5759 5759 5755 5760 5750 5751 5767 5770 5763 5760 5761 5761 5760 5760 5759 5757 5751 5750 5749 5747 5746 5746 5746 5746 5746 5746 5747 5747 5748 5750 5754 5756 5756 5755 5757 5757 5755 5756 5755 5753 5754 5753 5756 5754 5749 5750
5742 5744 5736 5755 5756 5757 5752 5734 5756 5769 5765 5758 5761 5761 5761 5762 5764 5762 5759 5756 5752 5749 5747 5746 5749 5747 5747 5749 5748 5749 5751 5752 5752 5755 5757 5758 5758 5758 5758 5758 5759 5758 5757 5757 5757 5758 5757 5755 5753
5729 5722 5729 5744 5759 5752 5745 5738 5758 5768 5764 5760 5760 5760 5763 5763 5766 5766 5763 5759 5755 5752 5749 5747 5749 5749 5750 5750 5750 5751 5753 5755 5756 5757 5758 5758 5761 5761 5760 5758 5760 5762 5761 5760 5758 5758 5756 5755 5754
5724 5724 5734 5736 5754 5754 5741 5739 5753 5765 5763 5761 5762 5763 5763 5764 5770 5772 5764 5761 5756 5754 5752 5750 5748 5750 5751 5751 5751 5753 5756 5758 5759 5760 5760 5759 5761 5762 5761 5758 5760 5763 5762 5761 5760 5759 5757 5756 5754
5738 5732 5736 5750 5763 5753 5745 5743 5753 5761 5763 5763 5764 5764 5767 5767 5770 5770 5766 5762 5757 5753 5752 5749 5749 5750 5750 5748 5749 5752 5754 5758 5762 5764 5764 5762 5761 5761 5760 5759 5759 5761 5764 5762 5760 5758 5756 5755 5753
5738 5735 5736 5751 5759 5750 5747 5749 5759 5764 5764 5768 5769 5767 5767 5763 5765 5766 5765 5762 5757 5754 5752 5750 5751 5750 5750 5752 5753 5756 5757 5760 5763 5765 5766 5767 5764 5762 5761 5761 5760 5762 5763 5761 5760 5760 5754 5755 5754
5737 5730 5737 5741 5749 5747 5745 5743 5757 5770 5772 5774 5773 5775 5772 5768 5764 5763 5766 5765 5759 5755 5754 5752 5751 5751 5751 5752 5753 5753 5756 5758 5761 5764 5765 5768 5766 5763 5764 5764 5762 5762 5761 5760 5761 5760 5757 5753 5754
5723 5751 5752 5741 5735 5723 5744 5715 5750 5762 5765 5772 5775 5773 5772 5771 5773 5769 5768 5765 5763 5759 5758 5757 5753 5752 5752 5752 5751 5752 5752 5752 5757 5759 5764 5767 5766 5765 5765 5765 5763 5762 5761 5760 5760 5762 5760 5758 5752
5745 5759 5749 5743 5730 5728 5725 5719 5751 5758 5757 5765 5776 5777 5776 5777 5776 5771 5770 5772 5768 5763 5760 5758 5756 5753 5754 5753 5753 5752 5751 5754 5756 5759 5762 5764 5766 5766 5766 5765 5764 5762 5761 5760 5759 5761 5761 5759 5756
5766 5745 5730 5720 5714 5702 5724 5726 5738 5752 5764 5774 5779 5781 5780 5779 5779 5776 5772 5772 5768 5765 5762 5759 5755 5754 5756 5755 5753 5753 5753 5753 5755 5758 5759 5762 5765 5766 5766 5765 5765 5763 5762 5761 5761 5761 5760 5759 5760
5748 5725 5689 5695 5691 5698 5718 5722 5742 5773 5779 5782 5780 5784 5785 5782 5779 5776 5771 5770 5769 5768 5765 5762 5757 5754 5756 5757 5754 5753 5752 5753 5756 5757 5758 5760 5763 5765 5765 5766 5767 5764 5763 5762 5762 5762 5761 5761 5761
5734 5725 5693 5693 5686 5705 5727 5720 5752 5785 5787 5792 5793 5790 5787 5782 5783 5781 5778 5775 5773 5774 5771 5766 5762 5759 5758 5759 5759 5756 5754 5753 5755 5758 5759 5761 5763 5765 5765 5765 5767 5764 5764 5764 5763 5763 5764 5762 5762
5739 5724 5743 5705 5701 5701 5716 5742 5771 5787 5782 5786 5787 5788 5785 5783 5783 5784 5783 5781 5777 5776 5774 5772 5769 5765 5762 5761 5760 5758 5756 5755 5756 5759 5760 5761 5763 5764 5763 5765 5766 5764 5763 5764 5765 5764 5763 5762 5763
5759 5756 5724 5707 5709 5702 5712 5724 5736 5775 5777 5782 5784 5787 5788 5789 5787 5784 5783 5783 5783 5781 5777 5776 5775 5772 5769 5765 5764 5764 5761 5759 5759 5759 5759 5759 5760 5761 5761 5762 5762 5762 5763 5764 5764 5764 5764 5762 5762
5748 5742 5726 5718 5708 5697 5696 5727 5767 5777 5787 5789 5790 5792 5794 5794 5791 5789 5789 5787 5786 5781 5777 5775 5774 5773 5770 5769 5768 5766 5764 5762 5760 5758 5759 5759 5759 5760 5760 5760 5760 5761 5761 5762 5762 5763 5763 5761 5760
5768 5756 5741 5713 5717 5697 5703 5726 5788 5788 5794 5799 5799 5797 5801 5802 5801 5797 5793 5788 5784 5781 5778 5778 5776 5774 5774 5772 5768 5767 5766 5763 5760 5757 5758 5758 5759 5761 5759 5758 5759 5761 5761 5762 5761 5762 5761 5760 5759